Temperature
-12 -12 -12 -12 -12 -13 -13 -13 -12 -12 -12 -11 -10 -10 -9 -8 -8 -7 -7 -7 -6 -5 -3 -2 -1 -0 0 1 2 2 3 3 4 5 6 7 8 9 9 9 9 9 9
-11 -12 -12 -12 -13 -13 -13 -13 -13 -13 -12 -12 -11 -10 -10 -9 -8 -7 -7 -7 -6 -5 -4 -2 -1 -1 0 1 1 2 3 3 4 4 5 6 8 8 8 8 8 8 8
-11 -12 -12 -13 -13 -13 -13 -13 -13 -13 -13 -12 -12 -11 -10 -9 -8 -8 -7 -7 -6 -6 -5 -4 -2 -2 -1 -0 0 1 2 2 3 4 4 5 7 7 7 7 7 7 7
-12 -12 -12 -13 -13 -14 -13 -14 -13 -13 -13 -13 -12 -12 -11 -10 -8 -8 -7 -7 -7 -6 -6 -5 -4 -3 -2 -1 -0 0 1 2 3 3 3 4 6 7 7 6 6 6 6
-12 -12 -12 -13 -13 -13 -14 -14 -14 -14 -13 -13 -12 -12 -11 -10 -9 -8 -7 -7 -7 -7 -6 -6 -5 -4 -3 -2 -1 -0 0 1 2 2 3 4 5 5 6 6 6 6 6
-12 -12 -13 -13 -13 -13 -14 -14 -14 -14 -14 -13 -13 -13 -12 -11 -10 -9 -8 -8 -8 -7 -7 -7 -6 -5 -3 -3 -2 -1 -1 0 1 1 2 3 4 5 5 5 5 6 5
-12 -12 -13 -13 -13 -14 -14 -14 -14 -14 -14 -14 -14 -13 -13 -12 -10 -9 -9 -9 -8 -8 -8 -7 -7 -6 -5 -4 -3 -2 -2 -1 -0 0 1 1 2 3 4 5 5 5 4
-12 -12 -13 -13 -14 -14 -14 -15 -15 -15 -14 -14 -14 -13 -13 -12 -11 -10 -9 -9 -9 -8 -8 -8 -8 -7 -6 -5 -4 -3 -3 -3 -2 -1 -1 -0 0 1 2 3 4 5 5
-12 -13 -13 -14 -14 -15 -15 -14 -14 -15 -14 -14 -14 -13 -13 -12 -11 -9 -9 -9 -9 -9 -8 -8 -8 -8 -8 -7 -6 -5 -5 -5 -5 -4 -2 -1 -1 -0 1 2 3 3 3
-12 -12 -13 -14 -15 -15 -15 -15 -15 -15 -14 -14 -14 -13 -13 -12 -11 -10 -10 -9 -9 -9 -9 -9 -9 -9 -8 -8 -8 -8 -7 -7 -6 -5 -4 -3 -2 -1 -0 1 1 2 3
-12 -12 -13 -14 -14 -15 -15 -15 -15 -15 -14 -14 -14 -13 -13 -13 -12 -11 -10 -10 -10 -10 -10 -10 -10 -10 -9 -9 -9 -10 -10 -9 -8 -7 -6 -5 -4 -3 -2 -1 -0 1 1
-11 -12 -12 -13 -14 -15 -15 -15 -15 -15 -14 -14 -14 -13 -13 -13 -12 -12 -11 -11 -10 -10 -10 -11 -11 -10 -10 -10 -10 -10 -10 -10 -9 -9 -8 -7 -7 -6 -6 -5 -4 -3 -1
-11 -12 -12 -12 -13 -14 -14 -14 -14 -14 -14 -14 -14 -13 -13 -13 -13 -12 -12 -12 -11 -11 -12 -12 -12 -11 -11 -11 -11 -11 -10 -10 -10 -10 -10 -10 -9 -9 -8 -8 -7 -5 -4
-12 -12 -12 -13 -14 -14 -14 -14 -14 -14 -14 -13 -13 -13 -13 -13 -13 -13 -13 -13 -12 -12 -13 -13 -13 -12 -12 -12 -12 -11 -11 -12 -11 -11 -11 -11 -10 -10 -9 -9 -8 -8 -7
-12 -12 -12 -13 -14 -14 -14 -14 -14 -14 -14 -14 -14 -14 -14 -13 -13 -13 -13 -13 -14 -14 -13 -13 -13 -13 -13 -13 -13 -13 -13 -13 -13 -12 -12 -12 -11 -10 -10 -9 -9 -8 -8
-12 -12 -13 -14 -13 -13 -14 -14 -14 -14 -14 -15 -15 -14 -14 -14 -13 -14 -14 -14 -14 -14 -14 -14 -14 -14 -14 -14 -14 -14 -14 -14 -14 -14 -13 -13 -12 -12 -11 -11 -10 -9 -9
-12 -12 -13 -13 -13 -14 -14 -14 -14 -14 -14 -15 -15 -15 -14 -14 -14 -14 -14 -14 -15 -15 -15 -15 -15 -15 -15 -15 -15 -15 -15 -15 -15 -15 -14 -14 -13 -13 -12 -12 -11 -11 -11
-12 -12 -13 -13 -13 -14 -14 -14 -14 -14 -14 -15 -15 -15 -15 -14 -14 -14 -14 -14 -15 -15 -15 -15 -15 -15 -15 -15 -15 -15 -16 -16 -16 -15 -15 -15 -14 -14 -14 -14 -13 -13 -13
-12 -12 -12 -12 -13 -13 -14 -14 -14 -14 -14 -15 -15 -15 -15 -15 -15 -14 -14 -15 -15 -15 -15 -15 -15 -15 -15 -15 -15 -16 -16 -16 -16 -16 -16 -15 -15 -15 -15 -15 -15 -14 -14
-11 -11 -11 -12 -13 -13 -13 -14 -14 -14 -14 -15 -15 -15 -15 -15 -15 -15 -15 -15 -15 -15 -15 -15 -15 -15 -15 -15 -15 -15 -16 -16 -16 -16 -16 -16 -15 -15 -15 -15 -15 -15 -15
-10 -10 -11 -12 -13 -13 -13 -13 -14 -15 -15 -15 -15 -15 -15 -15 -15 -15 -15 -15 -15 -15 -15 -15 -15 -15 -15 -15 -15 -15 -15 -16 -16 -16 -16 -16 -15 -15 -15 -15 -15 -15 -15
-9 -10 -10 -12 -12 -13 -13 -13 -13 -14 -15 -15 -15 -15 -15 -15 -15 -15 -15 -15 -15 -14 -15 -15 -15 -15 -15 -15 -15 -15 -15 -15 -15 -15 -15 -15 -15 -15 -15 -15 -15 -15 -15
-9 -9 -10 -11 -12 -12 -13 -13 -13 -13 -14 -15 -15 -15 -15 -15 -15 -15 -15 -14 -14 -14 -14 -15 -15 -15 -15 -15 -14 -14 -14 -14 -14 -14 -14 -14 -14 -14 -15 -15 -15 -15 -15
-9 -9 -9 -10 -11 -12 -12 -12 -13 -13 -13 -14 -14 -14 -14 -14 -14 -14 -14 -14 -14 -14 -14 -14 -14 -14 -14 -14 -14 -14 -14 -14 -14 -14 -14 -14 -14 -14 -14 -14 -14 -14 -14
-9 -9 -9 -10 -10 -11 -11 -11 -12 -12 -12 -13 -13 -13 -13 -14 -14 -14 -14 -14 -14 -14 -14 -14 -14 -14 -14 -14 -14 -13 -13 -13 -13 -13 -13 -14 -14 -14 -14 -14 -14 -14 -14
-9 -9 -9 -9 -10 -10 -10 -10 -11 -11 -12 -12 -12 -13 -13 -13 -13 -13 -13 -13 -13 -14 -14 -14 -14 -14 -13 -13 -13 -13 -13 -13 -13 -13 -13 -13 -13 -14 -14 -14 -14 -14 -14
Wind_Speed
17 17 18 17 17 18 17 19 19 20 21 21 22 21 21 20 19 18 17 19 18 17 16 14 13 12 10 9 10 11 12 11 11 10 8 9 12 11 9 9 11 11 12
17 17 17 17 17 18 18 19 21 20 21 20 20 21 21 21 20 20 18 18 17 17 17 15 10 7 8 7 8 10 11 11 10 10 8 10 11 13 11 11 10 9 11
17 17 17 17 18 19 19 19 20 20 20 20 19 20 20 20 21 21 17 17 16 16 16 15 13 11 10 8 9 9 10 10 9 8 10 9 7 10 11 10 10 9 11
16 17 17 18 18 19 19 19 20 19 20 20 20 19 20 20 20 22 14 14 15 16 16 15 14 13 12 9 7 8 7 8 8 7 9 9 8 10 12 12 11 9 10
16 16 17 17 18 18 18 19 19 19 19 19 20 20 20 18 19 24 11 11 13 15 16 15 14 18 20 12 4 5 6 4 4 4 7 7 8 11 12 10 13 12 10
16 16 16 17 18 18 18 18 19 19 19 19 19 20 20 18 28 32 18 11 12 13 14 14 13 15 19 22 23 22 16 6 2 1 2 5 4 4 7 10 14 14 8
16 16 16 17 18 18 18 18 18 18 18 19 19 20 20 22 31 33 23 13 12 12 13 12 12 14 16 14 19 24 25 28 21 8 8 5 4 5 2 8 9 13 8
16 16 17 17 18 18 18 18 17 16 16 17 18 19 19 21 30 33 23 11 11 13 13 12 13 16 17 16 15 17 18 21 22 16 13 13 11 8 7 5 9 11 9
16 17 18 18 18 18 18 18 16 16 16 16 16 18 19 20 27 32 17 10 10 13 14 14 16 17 24 24 18 17 17 17 20 26 27 26 29 27 17 7 6 9 6
17 18 19 18 18 18 18 18 16 16 16 16 16 16 17 17 24 28 21 11 11 11 11 14 22 23 25 25 18 17 16 15 15 18 20 23 21 23 26 17 9 5 5
18 18 19 18 18 17 16 16 16 15 15 15 15 15 15 17 22 26 25 14 11 10 10 11 15 25 26 26 22 17 17 14 13 14 14 15 15 16 17 16 14 10 8
18 18 18 18 16 14 16 15 15 14 13 13 13 14 12 14 18 20 24 23 18 10 9 10 14 22 24 25 20 20 21 16 11 12 13 13 13 13 13 14 16 16 16
18 18 17 17 16 15 15 15 14 13 11 11 11 10 11 11 14 17 17 20 22 14 12 17 19 20 19 17 21 22 18 13 12 12 12 12 11 11 10 9 11 14 17
17 17 16 15 16 16 13 12 12 12 12 12 10 8 9 10 11 10 10 11 13 12 10 13 17 18 16 16 16 14 13 12 12 11 10 10 10 10 10 9 8 7 9
17 16 16 14 15 15 14 12 13 11 12 13 10 8 8 9 11 16 13 11 9 9 7 8 9 10 10 10 10 11 11 11 11 10 10 10 10 10 10 10 9 8 8
15 16 13 13 14 13 13 13 15 15 17 16 15 12 9 11 13 15 15 15 15 13 9 8 9 9 9 9 9 9 9 9 9 9 9 9 9 9 9 8 8 8 8
16 15 13 13 13 13 13 13 13 13 14 13 14 14 13 12 12 13 13 13 13 12 9 8 8 8 7 7 7 7 7 7 7 7 7 8 7 7 7 7 7 6 7
15 14 14 12 13 13 13 12 11 11 11 9 10 12 12 12 10 11 10 7 8 8 7 7 7 6 6 6 6 6 5 5 5 5 6 6 6 6 6 5 5 5 5
13 11 12 12 12 12 12 12 11 11 9 8 7 7 9 8 7 7 7 5 6 6 6 6 6 5 5 5 5 5 5 4 4 4 4 4 4 4 4 4 3 4 4
11 15 15 12 12 12 11 11 11 11 10 8 7 7 7 5 4 4 4 5 5 5 5 6 5 5 5 5 4 4 4 4 3 3 3 3 3 3 3 2 2 2 2
10 11 15 12 11 12 11 11 10 10 10 8 7 8 10 5 4 5 5 5 5 5 6 6 5 5 5 5 4 4 5 4 4 3 3 3 3 3 3 3 3 3 3
8 9 10 11 11 11 11 10 9 9 10 9 7 7 8 5 5 5 5 5 5 5 5 5 6 5 5 5 5 5 5 5 4 4 4 4 4 4 5 5 4 4 4
9 9 10 10 10 13 11 9 9 9 9 9 8 7 6 5 5 5 6 6 6 6 6 6 6 6 6 6 6 6 6 6 6 6 6 6 6 6 6 6 7 7 6
9 10 10 10 10 10 11 10 9 9 9 9 8 7 7 6 6 6 6 6 6 7 8 8 8 9 10 9 8 8 9 10 11 10 11 9 8 7 7 7 8 9 9
9 9 10 10 11 10 10 10 9 9 9 8 8 8 8 7 7 7 7 7 8 8 10 10 10 10 11 12 12 11 13 15 16 13 11 10 9 9 9 9 8 9 9
9 10 10 10 11 11 10 10 9 9 9 8 8 8 8 8 8 8 8 7 7 8 10 10 11 12 13 13 14 15 16 16 13 9 7 7 8 8 8 8 9 9 9
Wind_Direction
340 339 338 338 338 336 334 332 330 328 327 328 328 327 327 327 329 322 319 324 325 322 317 296 270 264 264 263 256 245 236 232 242 258 250 217 197 187 178 174 156 150 142
339 338 339 339 339 339 337 334 332 331 330 330 330 329 330 331 331 326 320 331 332 332 331 328 315 302 299 299 289 264 244 231 230 244 232 210 198 183 168 160 150 141 140
339 339 340 341 341 340 338 336 335 335 334 334 334 332 331 332 329 328 322 334 337 337 339 341 342 339 326 310 306 288 259 238 224 232 235 209 186 169 158 148 137 135 140
337 339 340 340 339 338 337 336 337 337 337 336 336 335 333 332 329 329 327 339 343 343 344 348 351 353 341 311 300 299 272 237 224 223 224 199 175 166 163 150 138 132 135
335 337 337 336 335 335 335 337 338 338 338 337 338 338 338 336 333 335 336 348 350 348 349 351 353 4 2 6 358 329 299 258 228 211 197 177 164 166 167 163 145 129 121
331 331 331 333 333 333 332 336 338 337 338 339 339 339 340 339 336 344 353 353 354 354 355 356 358 8 12 20 36 38 33 22 345 284 154 125 106 128 148 154 147 143 134
327 326 326 328 330 330 330 333 336 335 336 336 337 339 340 339 339 345 351 353 360 3 1 3 12 15 23 24 35 39 34 36 40 47 63 63 61 21 105 154 169 153 127
322 322 324 325 324 324 327 328 332 334 332 332 334 338 340 340 340 342 346 357 7 9 7 18 27 26 30 32 37 43 40 36 38 43 50 52 57 43 31 67 102 102 93
322 322 322 322 321 322 323 322 329 332 330 330 333 337 341 342 344 345 7 13 12 10 17 34 41 39 36 36 35 38 38 30 32 42 46 45 44 46 43 62 104 128 113
327 322 320 321 323 323 322 323 326 327 329 330 331 336 343 346 347 354 18 15 15 10 16 37 46 46 41 40 38 37 37 29 28 32 37 38 40 39 40 38 34 84 105
324 321 321 324 327 325 324 325 323 324 326 329 332 336 345 350 352 359 16 14 11 13 20 35 45 49 47 43 42 39 39 37 36 39 40 39 40 41 40 40 41 48 69
323 323 326 328 328 326 327 327 326 326 326 328 331 337 347 351 355 2 16 22 23 22 34 40 45 49 49 48 45 40 39 39 39 43 43 40 38 40 45 49 51 56 58
325 328 329 328 328 330 331 331 331 330 327 324 321 329 344 348 353 7 24 30 32 35 45 56 53 50 47 45 44 42 38 36 37 41 42 41 39 37 40 53 63 63 59
328 330 330 330 331 334 336 336 333 331 328 330 340 346 345 346 357 17 26 29 35 42 39 42 46 48 48 45 43 41 40 40 39 39 39 39 39 39 38 35 45 57 63
331 332 332 332 332 336 339 339 339 342 346 355 353 346 347 348 11 33 37 34 38 49 50 45 41 38 38 39 42 42 39 37 39 36 35 36 37 40 38 33 40 56 61
335 336 334 334 338 342 343 344 350 352 354 1 1 359 355 0 29 42 43 44 44 46 50 47 42 38 35 32 33 36 36 35 33 34 34 34 35 36 38 38 41 50 58
338 337 335 339 344 346 345 343 342 346 356 5 4 1 6 15 42 49 49 49 48 47 49 47 42 36 32 30 28 28 30 29 25 29 32 29 30 33 37 37 39 49 57
342 342 343 344 344 343 343 343 343 345 350 359 3 3 7 15 40 49 42 42 44 44 41 38 35 31 26 23 22 20 18 17 17 17 21 23 21 22 28 32 34 34 49
347 349 347 345 345 347 350 351 351 352 356 358 359 6 9 10 23 30 18 17 21 23 22 19 16 13 10 5 1 2 3 5 8 358 4 9 10 10 14 15 21 24 30
350 352 354 351 352 354 357 357 356 357 0 1 1 358 341 334 343 348 349 349 347 353 355 356 356 351 346 342 336 332 331 336 344 340 345 340 336 335 335 329 336 343 352
345 347 354 355 357 357 357 357 355 357 2 360 357 355 10 8 346 334 326 325 325 328 332 336 337 337 330 325 319 313 307 310 315 313 305 294 282 278 281 282 279 277 282
342 345 350 354 356 358 357 354 353 354 357 357 353 351 352 347 335 326 324 321 321 315 314 315 316 320 317 312 309 306 300 295 292 285 274 264 256 254 255 255 256 257 255
342 345 348 351 353 355 356 353 351 349 348 348 347 345 342 335 325 318 314 314 312 306 304 302 301 303 307 298 287 282 281 282 279 273 266 261 251 247 245 245 246 250 250
346 345 345 346 346 352 353 350 348 343 339 338 338 336 330 321 309 302 299 298 298 296 295 293 291 292 294 294 287 278 272 272 273 264 252 250 253 254 251 248 249 248 246
348 346 344 343 342 343 345 344 341 337 331 327 325 322 318 312 304 296 291 286 286 284 286 288 285 286 287 289 288 285 283 283 281 268 244 235 241 246 250 252 250 250 246
348 346 344 343 344 342 337 334 331 328 322 318 314 310 307 304 300 295 289 284 282 281 281 280 278 279 281 283 283 285 289 292 294 277 247 227 231 240 242 243 243 241 244
Height
1533 1526 1520 1513 1507 1501 1495 1488 1482 1475 1469 1462 1455 1449 1444 1439 1433 1428 1423 1416 1408 1401 1396 1393 1391 1391 1391 1392 1392 1394 1395 1397 1397 1400 1403 1404 1406 1409 1412 1416 1419 1422 1426
1531 1524 1518 1512 1505 1499 1492 1485 1479 1472 1466 1460 1453 1446 1440 1435 1429 1423 1419 1413 1405 1398 1392 1388 1386 1385 1384 1384 1385 1386 1387 1389 1392 1394 1397 1399 1401 1403 1407 1411 1415 1419 1424
1529 1523 1516 1510 1503 1497 1490 1483 1477 1470 1463 1457 1451 1444 1438 1432 1426 1419 1415 1410 1403 1396 1389 1384 1381 1379 1379 1378 1378 1378 1380 1382 1384 1387 1391 1394 1395 1398 1402 1407 1412 1417 1422
1527 1521 1515 1508 1502 1495 1488 1482 1475 1469 1462 1455 1448 1443 1436 1430 1423 1417 1412 1407 1400 1394 1388 1382 1379 1376 1375 1374 1373 1373 1374 1375 1377 1379 1385 1387 1388 1391 1397 1402 1408 1414 1419
1525 1519 1513 1506 1500 1493 1487 1481 1474 1468 1461 1454 1447 1441 1435 1428 1421 1416 1410 1405 1400 1394 1389 1384 1379 1377 1374 1372 1371 1370 1370 1370 1370 1372 1378 1379 1381 1385 1391 1397 1402 1409 1417
1523 1517 1511 1504 1498 1491 1485 1479 1473 1466 1460 1453 1447 1440 1434 1428 1421 1416 1410 1406 1401 1396 1391 1386 1382 1378 1374 1372 1370 1368 1367 1366 1366 1368 1371 1372 1375 1379 1386 1392 1399 1405 1414
1521 1515 1509 1502 1496 1490 1484 1478 1472 1465 1459 1452 1446 1440 1434 1427 1421 1416 1410 1407 1403 1398 1394 1389 1385 1381 1377 1373 1370 1368 1367 1365 1365 1366 1367 1369 1372 1376 1382 1389 1396 1402 1409
1519 1513 1506 1500 1493 1488 1482 1477 1471 1465 1458 1452 1446 1441 1435 1428 1421 1415 1411 1408 1404 1400 1396 1393 1389 1385 1381 1377 1373 1371 1369 1366 1366 1365 1367 1369 1371 1375 1380 1385 1389 1397 1406
1518 1511 1505 1498 1491 1485 1480 1475 1470 1464 1458 1452 1447 1441 1436 1429 1423 1417 1411 1410 1406 1403 1399 1396 1393 1389 1385 1380 1377 1375 1373 1372 1370 1368 1368 1369 1371 1375 1379 1384 1389 1395 1402
1516 1510 1503 1496 1490 1483 1478 1473 1468 1463 1458 1453 1447 1442 1437 1432 1425 1421 1416 1412 1409 1406 1403 1400 1397 1394 1390 1386 1383 1380 1378 1378 1375 1373 1372 1372 1375 1377 1380 1385 1390 1395 1400
1515 1508 1500 1494 1488 1482 1476 1471 1466 1461 1457 1452 1447 1443 1439 1433 1428 1423 1419 1415 1412 1410 1407 1405 1402 1399 1396 1392 1390 1388 1386 1384 1381 1380 1379 1379 1380 1381 1384 1387 1390 1395 1400
1513 1506 1499 1493 1486 1480 1475 1470 1465 1460 1456 1452 1447 1443 1439 1435 1431 1427 1423 1419 1415 1413 1411 1409 1407 1404 1401 1399 1396 1394 1392 1390 1388 1387 1385 1385 1385 1387 1389 1391 1394 1396 1400
1512 1505 1498 1492 1486 1480 1475 1469 1464 1460 1456 1451 1447 1444 1441 1437 1433 1430 1427 1423 1420 1416 1415 1413 1411 1408 1406 1404 1402 1401 1399 1396 1395 1393 1392 1392 1393 1394 1396 1397 1399 1401 1403
1510 1503 1497 1491 1485 1480 1475 1470 1464 1459 1455 1451 1447 1444 1442 1439 1435 1432 1429 1427 1424 1421 1418 1417 1415 1413 1411 1409 1408 1406 1404 1403 1402 1401 1401 1401 1401 1401 1402 1402 1404 1405 1407
1509 1503 1496 1490 1486 1480 1475 1470 1465 1460 1456 1452 1448 1445 1443 1441 1438 1435 1432 1429 1426 1424 1422 1421 1419 1417 1415 1414 1412 1411 1410 1409 1408 1407 1407 1406 1406 1406 1406 1407 1408 1410 1412
1508 1502 1496 1491 1486 1480 1475 1470 1466 1461 1456 1452 1448 1446 1444 1443 1440 1437 1434 1432 1429 1427 1425 1424 1422 1421 1419 1418 1416 1415 1414 1413 1412 1412 1411 1410 1410 1410 1410 1411 1412 1413 1415
1510 1503 1497 1492 1486 1480 1475 1470 1465 1461 1457 1453 1449 1447 1445 1444 1442 1440 1438 1435 1433 1430 1429 1427 1426 1424 1423 1421 1420 1419 1417 1416 1415 1415 1414 1413 1413 1413 1414 1415 1416 1417 1418
1511 1505 1500 1494 1488 1482 1477 1472 1467 1462 1457 1454 1450 1448 1446 1446 1444 1443 1441 1439 1437 1434 1433 1431 1430 1428 1426 1425 1423 1422 1421 1420 1418 1417 1416 1415 1415 1415 1416 1417 1419 1420 1421
1513 1506 1501 1495 1490 1485 1479 1473 1468 1464 1460 1456 1453 1450 1449 1447 1446 1444 1443 1442 1440 1438 1436 1434 1432 1431 1429 1427 1425 1424 1423 1422 1420 1419 1418 1417 1417 1418 1418 1420 1421 1421 1422
1516 1509 1503 1497 1492 1486 1481 1475 1470 1466 1462 1458 1456 1453 1451 1449 1448 1447 1445 1443 1442 1440 1438 1436 1434 1432 1430 1428 1426 1425 1424 1423 1422 1421 1420 1420 1420 1420 1421 1421 1422 1422 1423
1518 1511 1505 1499 1494 1489 1483 1477 1472 1468 1465 1461 1458 1455 1452 1450 1449 1447 1446 1444 1442 1441 1439 1437 1435 1433 1431 1428 1427 1425 1424 1423 1422 1422 1421 1421 1421 1422 1422 1422 1422 1422 1423
1520 1514 1507 1502 1496 1491 1486 1480 1475 1471 1467 1463 1460 1456 1453 1451 1449 1448 1446 1444 1442 1440 1438 1436 1435 1433 1431 1429 1427 1426 1424 1423 1423 1422 1422 1421 1421 1421 1421 1421 1421 1421 1422
1522 1517 1511 1505 1499 1494 1488 1483 1478 1473 1469 1465 1461 1458 1454 1451 1449 1447 1445 1443 1441 1439 1437 1435 1434 1432 1430 1428 1427 1425 1424 1423 1422 1421 1421 1420 1420 1420 1419 1419 1419 1419 1420
1525 1519 1513 1507 1502 1496 1491 1485 1480 1475 1471 1466 1462 1458 1455 1451 1448 1446 1443 1441 1439 1437 1435 1433 1432 1430 1428 1427 1425 1424 1423 1422 1420 1419 1418 1417 1417 1416 1416 1416 1416 1416 1416
1527 1521 1515 1509 1504 1499 1493 1488 1482 1477 1472 1467 1463 1459 1455 1451 1448 1444 1441 1439 1436 1434 1432 1430 1428 1427 1425 1424 1423 1422 1421 1419 1418 1416 1415 1414 1413 1412 1411 1411 1410 1411 1411
1528 1523 1518 1512 1506 1501 1495 1489 1484 1478 1473 1468 1463 1458 1454 1450 1446 1443 1440 1436 1434 1431 1429 1427 1425 1423 1422 1421 1420 1419 1418 1416 1415 1414 1413 1411 1410 1408 1407 1406 1406 1406 1406